[[{"header":{"parameterUnit":"m.s-1","parameterCategory":1,"la1":30.2991,"la2":30.254,"lo1":-89.0895,"lo2":-89.0444,"dy":0.0017,"dx":0.0017,"nx":28,"ny":28,"refTime":"2024-10-21T03:00:00:Z","depth":0,"parameterNumber":2,"parameterNumberName":"U-component_of_WINDS"},"data":[0,0,0,0,0,0,0,0,0,0,0,0,0,0,0,0,0,0,0,0,0,0,0,0,0,0,0,0,0,0,0,0,0,0,0,0,0,0,0,0,0,0,0,0,0,0,0,0,0,0,0,0,0,0,0,0,0,0,-1.8926,-1.8926,0,-1.8858,-1.8857,-1.8856,-1.8757,-1.8755,-1.8753,-1.8752,-1.8683,-1.8683,-1.8683,0,0,0,0,0,0,0,0,0,0,0,0,0,-1.8975,-1.8975,-1.8926,-1.8926,-1.8925,-1.8858,-1.8857,-1.8856,-1.8757,-1.8755,-1.8753,-1.8751,-1.8684,-1.8683,-1.8683,0,0,0,0,0,0,0,0,0,0,0,0,0,-1.8935,-1.8975,-1.8927,-1.8867,-1.8861,-1.8858,-1.8857,-1.8856,-1.8758,-1.8755,-1.8752,-1.875,-1.8684,-1.8683,-1.8683,-1.8733,0,0,-1.8682,-1.8682,0,0,0,0,0,0,0,0,-1.8937,-1.8933,-1.8877,-1.8871,-1.8865,-1.8813,-1.8849,-1.8815,-1.8758,-1.8797,-1.8752,-1.8749,-1.8729,-1.8725,-1.8717,-1.873,-1.8727,-1.8682,-1.8682,-1.8682,-1.8682,0,0,0,0,0,0,0,-1.894,-1.8936,-1.8899,-1.8876,-1.8869,-1.8845,-1.8837,-1.8842,-1.8778,-1.8793,-1.8786,-1.8779,-1.8725,-1.8718,-1.8715,-1.8726,-1.8682,-1.8682,-1.8682,-1.8681,-1.8779,-1.8782,0,0,0,0,0,0,-1.8952,-1.8939,-1.8901,-1.8897,-1.8895,-1.8846,-1.8837,-1.8832,-1.8778,-1.8767,-1.8781,-1.8775,-1.872,-1.8716,-1.8712,-1.877,-1.8682,-1.8681,-1.8681,-1.8776,-1.878,-1.8783,0,0,0,0,0,0,-1.8953,-1.8949,-1.8904,-1.8916,-1.8908,-1.8848,-1.8844,-1.8832,-1.8825,-1.8769,-1.8757,-1.8786,-1.8718,-1.8713,-1.8729,-1.8766,-1.8681,-1.8681,-1.8773,-1.8777,-1.8781,-1.8884,0,0,0,0,0,0,-1.8955,-1.895,-1.8968,-1.8917,-1.8908,-1.8921,-1.8846,-1.8833,-1.8825,-1.8815,-1.877,-1.876,-1.8715,-1.873,-1.8729,-1.8764,-1.8681,-1.877,-1.8775,-1.878,-1.8877,-1.8891,-1.8903,0,0,0,0,0,-1.8957,-1.8999,-1.8969,-1.8965,-1.8929,-1.8924,-1.8919,-1.8866,-1.8828,-1.8846,-1.881,-1.8761,-1.8762,-1.8733,-1.873,-1.8766,-1.8767,-1.8773,-1.878,-1.8871,-1.8888,-1.8903,0,0,0,0,0,0,-1.9056,-1.8991,-1.8957,-1.8984,-1.896,-1.8907,-1.8928,-1.8885,-1.8872,-1.8864,-1.8799,-1.879,-1.8815,-1.8791,-1.876,-1.8813,-1.8757,-1.8763,-1.8828,-1.8844,-1.8857,-1.8863,-1.868,0,0,0,0,0,-1.9081,-1.9081,-1.9025,-1.9054,-1.9044,-1.8988,-1.8984,-1.8945,-1.8918,-1.8908,-1.8873,-1.8849,-1.8844,-1.8842,-1.8834,-1.8873,-1.8863,-1.8896,-1.8909,-1.892,-1.8927,-1.8949,-1.8964,-1.8803,-1.8803,-1.8803,0,0,-1.9132,-1.9097,-1.9101,-1.9073,-1.905,-1.9054,-1.898,-1.8986,-1.8989,-1.8909,-1.8923,-1.8897,-1.8866,-1.8895,-1.8906,-1.8876,-1.8969,-1.8928,-1.8938,-1.8938,-1.8957,-1.8973,-1.8986,-1.8808,-1.8807,-1.8806,0,0,-1.9228,-1.9201,-1.9223,-1.9202,-1.9168,-1.9131,-1.9137,-1.909,-1.907,-1.9083,-1.9024,-1.9026,-1.9018,-1.9,-1.8989,-1.9081,-1.9037,-1.908,-1.9149,-1.9172,-1.9184,-1.9195,-1.9231,-1.9245,-1.9087,-1.9087,-1.9087,0,-1.9297,-1.9299,-1.9241,-1.9251,-1.9242,-1.9169,-1.9193,-1.9175,-1.9141,-1.9137,-1.9104,-1.9095,-1.9068,-1.9093,-1.9116,-1.9109,-1.9116,-1.9086,-1.9187,-1.9198,-1.9207,-1.9241,-1.9254,-1.9093,-1.9092,-1.9091,-1.9091,0,-1.9387,-1.9389,-1.9412,-1.9381,-1.9374,-1.9391,-1.9337,-1.9337,-1.93,-1.9267,-1.9283,-1.9249,-1.9235,-1.9237,-1.92,-1.9258,-1.9241,-1.9199,-1.9141,-1.9229,-1.926,-1.9272,-1.9101,-1.9099,-1.9097,-1.9096,0,0,-1.9543,-1.9481,-1.9491,-1.9477,-1.9435,-1.9437,-1.9452,-1.9437,-1.944,-1.9419,-1.9432,-1.9428,-1.9389,-1.9377,-1.9338,-1.9357,-1.9436,-1.9312,-1.9311,-1.9339,-1.9502,-1.9536,-1.9551,-1.9406,-1.9408,-1.941,-1.9505,0,-1.9633,-1.9655,-1.9604,-1.9639,-1.9642,-1.9574,-1.9588,-1.9565,-1.9535,-1.9534,-1.9501,-1.9501,-1.9448,-1.9441,-1.9457,-1.9423,-1.9468,-1.9415,-1.942,-1.9421,-1.9432,-1.9567,-1.9602,-1.9694,-1.9516,-1.9518,-1.952,0,-1.9741,-1.9727,-1.9762,-1.9721,-1.972,-1.9733,-1.9718,-1.9717,-1.969,-1.9667,-1.9656,-1.961,-1.9624,-1.9568,-1.9588,-1.9553,-1.9552,-1.9536,-1.9538,-1.9538,-1.9477,-1.9574,-1.9721,-1.9737,-1.9537,-1.9536,-1.9535,0,-1.9856,-1.9845,-1.9865,-1.9855,-1.9807,-1.9818,-1.9799,-1.9769,-1.9765,-1.9751,-1.9748,-1.9736,-1.9731,-1.9724,-1.9677,-1.964,-1.9704,-1.9643,-1.9688,-1.9689,-1.9706,-1.9706,-1.9859,-1.9701,-1.97,-1.97,-1.97,0,-1.9963,-1.9988,-1.9916,-1.993,-1.9957,-1.9898,-1.9927,-1.9901,-1.9876,-1.9884,-1.9824,-1.9833,-1.9769,-1.9772,-1.9735,-1.976,-1.9756,-1.974,-1.9731,-1.9747,-1.975,-1.9747,-1.9741,-1.9704,-1.9703,-1.9702,-1.9702,0,-2.0096,-2.0048,-2.0067,-2.002,-2.0009,-2.0032,-1.9992,-2.0003,-1.997,-1.9981,-1.998,-1.9929,-1.9929,-1.9881,-1.9872,-1.9847,-1.9888,-1.9866,-1.9898,-1.9892,-1.994,-1.9938,-2.0099,-2.0119,-1.9946,-1.9948,-1.9949,0,-2.0169,-2.0187,-2.0142,-2.0143,-2.0127,-2.0129,-2.0125,-2.0068,-2.0067,-2.0039,-2.0054,-2.005,-2.0044,-2.0048,-2.0011,-2.0004,-1.9983,-2.004,-1.9981,-1.9998,-1.9987,-1.9988,-1.9991,-2.0053,-2.0055,-2.0057,-2.0058,0,-2.0304,-2.028,-2.0276,-2.0265,-2.0261,-2.0249,-2.0233,-2.0238,-2.0177,-2.0178,-2.0178,-2.0173,-2.0164,-2.0162,-2.0149,-2.013,-2.0086,-2.0077,-2.0087,-2.0105,-2.0125,-2.0118,-1.9934,-2.0074,-2.0072,-2.0071,-2.007,-2.0069,-2.0411,-2.0425,-2.0397,-2.0395,-2.0377,-2.0365,-2.0374,-2.0342,-2.0341,-2.0329,-2.0296,-2.0303,-2.0278,-2.0256,-2.0241,-2.0247,-2.0218,-2.0233,-2.0237,-2.0242,-2.0253,-2.0122,-2.0244,-2.0243,-2.0243,-2.0242,-2.0242,0,-2.0546,-2.0525,-2.0523,-2.0504,-2.0503,-2.046,-2.0441,-2.0444,-2.045,-2.0431,-2.0426,-2.0428,-2.0426,-2.0389,-2.0383,-2.0395,-2.0374,-2.0395,-2.0395,-2.0392,-2.0277,-2.027,-2.0412,-2.0412,-2.0412,-2.0412,-2.0412,-2.0412,-2.0616,-2.0639,-2.0612,-2.0627,-2.0605,-2.0611,-2.0605,-2.0594,-2.0578,-2.0583,-2.0581,-2.0556,-2.0531,-2.0523,-2.052,-2.0509,-2.0511,-2.054,-2.0523,-2.0416,-2.04,-2.0384,-2.0378,-2.054,-2.054,-2.0638,-2.0639,-2.064]},{"header":{"parameterUnit":"m.s-1","parameterCategory":1,"la1":30.2991,"la2":30.254,"lo1":-89.0895,"lo2":-89.0444,"dy":0.0017,"dx":0.0017,"nx":28,"ny":28,"refTime":"2024-10-21T03:00:00:Z","depth":0,"parameterNumber":3,"parameterNumberName":"V-component_of_WINDS"},"data":[0,0,0,0,0,0,0,0,0,0,0,0,0,0,0,0,0,0,0,0,0,0,0,0,0,0,0,0,0,0,0,0,0,0,0,0,0,0,0,0,0,0,0,0,0,0,0,0,0,0,0,0,0,0,0,0,0,0,0.268,0.268,0,0.2692,0.2693,0.2693,0.2716,0.2717,0.2717,0.2718,0.2728,0.2728,0.2728,0,0,0,0,0,0,0,0,0,0,0,0,0,0.2673,0.2673,0.268,0.268,0.268,0.2692,0.2693,0.2693,0.2716,0.2717,0.2717,0.2718,0.2729,0.2728,0.2728,0,0,0,0,0,0,0,0,0,0,0,0,0,0.268,0.2673,0.268,0.2693,0.2695,0.2692,0.2693,0.2693,0.2716,0.2717,0.2717,0.2718,0.2729,0.2728,0.2728,0.2713,0,0,0.2728,0.2727,0,0,0,0,0,0,0,0,0.268,0.268,0.2691,0.2692,0.2694,0.2704,0.2694,0.2699,0.2716,0.2708,0.2718,0.2718,0.2719,0.272,0.2721,0.2713,0.2714,0.2727,0.2727,0.2727,0.2727,0,0,0,0,0,0,0,0.2679,0.268,0.2685,0.2691,0.2693,0.2698,0.27,0.2695,0.271,0.2709,0.271,0.2712,0.272,0.2721,0.2721,0.2714,0.2728,0.2727,0.2727,0.2727,0.2693,0.2692,0,0,0,0,0,0,0.2677,0.2679,0.2684,0.2685,0.2688,0.2697,0.2699,0.27,0.271,0.2712,0.2711,0.2713,0.2721,0.2721,0.2722,0.2703,0.2727,0.2727,0.2727,0.2694,0.2693,0.2692,0,0,0,0,0,0,0.2677,0.2677,0.2684,0.2683,0.2684,0.2697,0.2697,0.27,0.27,0.2712,0.2714,0.2709,0.2722,0.2722,0.2715,0.2704,0.2727,0.2727,0.2695,0.2693,0.2692,0.2666,0,0,0,0,0,0,0.2676,0.2677,0.2672,0.2682,0.2684,0.2677,0.2696,0.2699,0.27,0.2702,0.271,0.2712,0.2722,0.2715,0.2714,0.2704,0.2727,0.2696,0.2694,0.2693,0.2668,0.2664,0.2661,0,0,0,0,0,0.2676,0.2664,0.2672,0.2672,0.2678,0.2676,0.2677,0.2689,0.2699,0.2693,0.2701,0.2712,0.2705,0.2714,0.2714,0.2703,0.2696,0.2694,0.2693,0.2669,0.2665,0.2661,0,0,0,0,0,0,0.2651,0.2666,0.2674,0.2665,0.2669,0.268,0.2674,0.2684,0.2685,0.2687,0.2702,0.2703,0.2693,0.2698,0.2707,0.2688,0.2703,0.2701,0.2685,0.268,0.2677,0.2675,0.2726,0,0,0,0,0,0.2645,0.2643,0.2656,0.2646,0.2648,0.2661,0.2661,0.2669,0.2674,0.2676,0.2683,0.2686,0.2684,0.2683,0.2683,0.2669,0.267,0.2661,0.2658,0.2655,0.2652,0.2643,0.2639,0.2686,0.2686,0.2686,0,0,0.2631,0.2639,0.2637,0.2642,0.2646,0.2643,0.2662,0.2658,0.2656,0.2675,0.2668,0.2673,0.2678,0.2667,0.2662,0.267,0.264,0.2653,0.265,0.2649,0.2641,0.2637,0.2633,0.2685,0.2685,0.2685,0,0,0.2604,0.2611,0.2603,0.2607,0.2614,0.2622,0.262,0.263,0.2634,0.2627,0.2641,0.2638,0.2636,0.2638,0.2639,0.2612,0.2622,0.2612,0.2592,0.2584,0.258,0.2577,0.2565,0.2561,0.261,0.261,0.261,0,0.2586,0.2583,0.2598,0.2592,0.2593,0.2612,0.2603,0.2606,0.2612,0.2611,0.262,0.2617,0.2622,0.261,0.2604,0.2605,0.2601,0.261,0.2579,0.2576,0.2573,0.2562,0.2558,0.2608,0.2608,0.2609,0.2609,0,0.2559,0.2556,0.2549,0.2554,0.2555,0.2548,0.256,0.2559,0.2568,0.2575,0.2567,0.2574,0.2574,0.2572,0.2581,0.2562,0.2566,0.2577,0.2592,0.2567,0.2557,0.2553,0.2606,0.2607,0.2607,0.2607,0,0,0.2516,0.2529,0.2526,0.2528,0.2536,0.2534,0.2528,0.2528,0.2526,0.2529,0.2523,0.252,0.253,0.2531,0.254,0.2533,0.2509,0.2545,0.2545,0.2536,0.2485,0.2474,0.2469,0.2516,0.2516,0.2515,0.2484,0,0.2489,0.2479,0.2492,0.2478,0.2475,0.2492,0.2486,0.249,0.2497,0.2494,0.2501,0.2498,0.2513,0.2513,0.2507,0.2513,0.2498,0.2516,0.2508,0.2508,0.2504,0.2464,0.2454,0.2424,0.248,0.2479,0.2479,0,0.2456,0.2458,0.2444,0.2452,0.2451,0.2446,0.2446,0.2445,0.2449,0.2454,0.2455,0.2466,0.2459,0.2475,0.2464,0.2475,0.2473,0.2476,0.2475,0.2473,0.249,0.2458,0.2415,0.2409,0.2473,0.2474,0.2474,0,0.2422,0.2422,0.2413,0.2414,0.2424,0.242,0.2423,0.2429,0.2428,0.2429,0.2428,0.2428,0.2427,0.2426,0.2436,0.2447,0.2423,0.244,0.2425,0.2424,0.2417,0.2417,0.2369,0.242,0.242,0.242,0.242,0,0.2389,0.238,0.2398,0.2392,0.2381,0.2396,0.2384,0.239,0.2394,0.2389,0.2405,0.2399,0.2415,0.241,0.2418,0.2406,0.2407,0.2409,0.2411,0.2406,0.2405,0.2403,0.2404,0.2419,0.2419,0.2419,0.2419,0,0.2349,0.2361,0.2352,0.2363,0.2365,0.2356,0.2365,0.2359,0.2367,0.236,0.2359,0.237,0.2366,0.2377,0.2374,0.2379,0.2362,0.2368,0.236,0.2361,0.2343,0.2344,0.2291,0.2283,0.2341,0.2341,0.234,0,0.2326,0.2319,0.2329,0.2326,0.2329,0.2326,0.2325,0.2339,0.2338,0.2342,0.2335,0.2332,0.233,0.2322,0.2329,0.2327,0.2331,0.2313,0.2331,0.2326,0.2328,0.2327,0.2325,0.2308,0.2308,0.2307,0.2307,0,0.2283,0.2289,0.2288,0.2288,0.2286,0.2287,0.2289,0.2286,0.2301,0.2298,0.2294,0.2293,0.229,0.2286,0.2285,0.2288,0.2298,0.2302,0.2297,0.2291,0.2285,0.2285,0.2347,0.2302,0.2303,0.2303,0.2303,0.2303,0.2249,0.2242,0.2248,0.2245,0.2248,0.2249,0.2244,0.2251,0.2248,0.2247,0.2256,0.2249,0.2253,0.2253,0.2254,0.2248,0.2256,0.2251,0.2249,0.2246,0.2242,0.2289,0.2248,0.2249,0.2249,0.2249,0.2249,0,0.2204,0.2208,0.2206,0.2208,0.2205,0.2218,0.2221,0.2217,0.2211,0.2214,0.2212,0.2206,0.2202,0.2209,0.2206,0.22,0.2204,0.2198,0.2197,0.2197,0.2237,0.2239,0.2194,0.2194,0.2194,0.2194,0.2194,0.2194,0.218,0.2169,0.2176,0.2167,0.2171,0.2165,0.2165,0.2165,0.2167,0.216,0.2157,0.2163,0.2166,0.2163,0.216,0.2162,0.2158,0.215,0.2153,0.2189,0.2195,0.22,0.2202,0.2149,0.2149,0.2113,0.2113,0.2113]}]]